Regional Weather Roundup
Issued by NWS Grand Forks, ND

Home | Current Version | Previous Version | Graphics & Text | Print | Product List | Glossary On
Versions: 1 2 3 4 5 6 7 8 9 10 11 12 13 14 15 16 17 18 19 20 21 22 23 24 25 26 27 28 29 30 31 32 33 34 35 36 37 38 39 40 41 42 43 44 45 46 47 48 49 50
000
ASUS43 KFGF 231910
RWRFGF
PRAIRIE TO PINES  WEATHER ROUNDUP
NATIONAL WEATHER SERVICE EASTERN NORTH DAKOTA/GRAND FORKS ND
200 PM CDT SUN APR 23 2017

 **SATELLITE DATA USED TO AUGMENT SKY COVER AT AUTOMATED STATIONS**
 *****  WEATHER ACROSS EASTERN NORTH DAKOTA  *****

CITY           SKY/WX    TMP DP  RH WIND       PRES   REMARKS
GRAND FORKS    LGT SNOW  33  25  72 E14       30.15F WCI  23
GRAND FRKS AFB SNOW      28  25  86 E14       30.15F VSB 1/2 WCI  17
DEVILS LAKE    SNOW      28  26  92 E20       30.10F VSB 1/2 WCI  15
FARGO          CLOUDY    41  33  73 NE17      30.05F
WAHPETON ARPT  CLOUDY    50  37  62 E13G21    29.99F
$$

 ***** WEATHER ACROSS CENTRAL AND WESTERN NORTH DAKOTA  *****

CITY           SKY/WX    TMP DP  RH WIND       PRES   REMARKS
BISMARCK       CLOUDY    40  33  76 E21G30    29.94F
MINOT          FLURRIES  32  28  85 NE18      30.04S WCI  20
JAMESTOWN      CLOUDY    36  30  79 E23G32    29.98F
MINOT AFB      CLOUDY    31  29  92 E17       30.04F WCI  19
GARRISON         N/A     30  27  88 E18       29.99S WCI  18
WILLISTON      CLOUDY    32  26  78 E18       29.98F WCI  20
DICKINSON      CLOUDY    34  30  85 E15       29.87F WCI  24
HETTINGER      CLOUDY    40  34  79 E13       29.85F
$$

 *****  OTHER AIRPORT OBSERVATIONS IN OUR AREA  *****

CITY           SKY/WX    TMP DP  RH WIND       PRES   REMARKS
WALHALLA       NOT AVBL
GRAFTON AIRPOR FAIR      36  16  44 E13       30.18F
VALLEY CITY AR FLURRIES  36  34  93 E17G29    30.03F
CANDO          NOT AVBL
CAVALIER APRT  FAIR      37  16  41 E12G17    30.17F
GWINNER        CLOUDY    46  39  76 MISG      29.96F
ROLLA          CLOUDY    32  12  43 E22       30.10F WCI  19
 ***** THE ABOVE OBSERVATIONS ARE NON NWS ARE NOT QUALITY
       CONTROLLED AND MAY MIS-REPORT RAIN FOR SNOW...
$$

  *****  WEATHER ACROSS NORTHERN MINNESOTA  *****

CITY           SKY/WX    TMP DP  RH WIND       PRES   REMARKS
FLAG ISLAND    FAIR      32  12  43 N12       30.20F WCI  23
WARROAD        FAIR      34  18  51 NE14      30.20F WCI  24
ROSEAU         FAIR      36  16  44 E16       30.19F
HALLOCK        FAIR      37  10  32 E14       30.18F
THF RVR FALLS  LGT RAIN  33  17  51 E15       30.15F WCI  23
BAUDETTE       FAIR      36  11  35 VRB7      30.17F
WASKISH        CLOUDY    36  18  48 E9        30.16F
CROOKSTON      LGT SNOW  32  27  80 E13G21    30.15F WCI  22
STEPHEN NDAWN    N/A     37  14  38 E8          N/A
GREENBUSH NDAW   N/A     36  19  51 E12         N/A
$$
  *****  WEATHER ACROSS CENTRAL AND WEST MINNESOTA  *****

CITY           SKY/WX    TMP DP  RH WIND       PRES   REMARKS
FOSSTON        LGT SNOW  30  27  86 E16       30.12F WCI  19
BEMIDJI        LGT SNOW  30  27  88 E9        30.13F WCI  22
PARK RAPIDS    CLOUDY    35  27  72 E9G18     30.09F
ELBOW LAKE     FAIR      54  40  60 SE15G22   29.99F
WADENA         CLOUDY    45  34  65 E12       30.05S
DETROIT LAKES  CLOUDY    39  32  75 E10       30.06F
MOORHEAD       CLOUDY    41  34  75 NE14      30.05F
FERGUS FALLS   FAIR      48  37  66 E10G22    30.00F
MORRIS MN      FAIR      64  43  45 SE10G17   29.94F
STAPLES        PTSUNNY   45  32  61 E9G16     30.06F
$$
  *****  WEATHER ELSEWHERE ACROSS MINNESOTA  *****

CITY           SKY/WX    TMP DP  RH WIND       PRES   REMARKS
DULUTH         FLURRIES  34  31  88 E16       30.14F WCI  24
INTRNTL FALLS  FAIR      35  12  38 VRB3      30.18F
ELY            FAIR      36  19  51 NE7       30.15F
CLOQUET        CLOUDY    36  30  80 E10       30.13F
WHEATON        FAIR      61  41  48 E12G18    29.95F
BRAINERD       CLOUDY    42  33  70 E10       30.08F
HIBBING        LGT SNOW  31  26  82 NE6       30.16F VSB 3/4
ALEXANDRIA     FAIR      52  39  61 E17G23    30.01F
SAINT CLOUD    FAIR      54  40  59 E8        30.03F
MINNEAPOLIS    PTSUNNY   64  41  42 CALM      30.01F
$$

  *****  WEATHER ACROSS SOUTH DAKOTA  *****

CITY           SKY/WX    TMP DP  RH WIND       PRES   REMARKS
SIOUX FALLS    PTSUNNY   69  39  33 S16G26    29.94F
BROOKINGS      FAIR      68  32  26 S23G29    29.92
WATERTOWN      FAIR      65  34  31 S20G28    29.90F
HURON          FAIR      67  34  29 S18G28    29.87F
SISSETON         N/A     60  42  51 SE9       29.92F
ABERDEEN       FAIR      62  34  35 S14G22    29.87F
MITCHELL       FAIR      70  29  21 S22G29    29.88F
PIERRE         FAIR      72  37  28 S18G26    29.74F
MOBRIDGE       FAIR      58  38  47 E15G23    29.81F
RAPID CITY     FAIR      65  40  39 N9        29.76F
$$

  *****  SOME WEATHER IN NEARBY STATES *****

CITY           SKY/WX    TMP DP  RH WIND       PRES   REMARKS
GLASGOW MT     CLOUDY    40  32  73 E23G30    29.83F
GREAT FALLS MT LGT RAIN  45  41  86 CALM      29.76F
CHEYENNE WY    FAIR      64  27  24 S13G20    29.89F
SCOTTSBLUFF NE FAIR      74  26  16 SW9G22    29.80F
OMAHA NE       PTSUNNY   71  27  19 S17       30.05F
DES MOINES IA  FAIR      70  33  25 S8        30.08F
DAVENPORT IA   FAIR      70  34  26 N7        30.08F
CHICAGO IL     FAIR      71  25  17 N6        30.06F
EAU CLAIRE WI  FAIR      62  40  44 VRB5      30.03F
LA CROSSE WI   FAIR      73  37  27 VRB7      30.01F
$$

  *****  SOME NATIONAL WEATHER *****

CITY           SKY/WX    TMP DP  RH WIND       PRES   REMARKS
LA GUARDIA NY  FAIR      64  34  32 S9        30.07F
RALEIGH NC     LGT RAIN  54  52  93 NE13G22   30.01F FOG
ATLANTA GA     LGT RAIN  63  61  93 W18G33    29.76S FOG
NEW ORLEANS LA PTSUNNY   67  54  63 NW13      29.91F
OKLAHOMA CITY  FAIR      67  35  30 N9        30.15F
ALBUQUERQUE NM FAIR      65  33  30 SW8       30.12F
SALT LAKE CITY PTSUNNY   64  37  36 NW13      29.80F
LOS ANGELES CA FAIR      71  58  63 W14       29.88R
BOISE ID       FAIR      61  43  51 NW8       29.84F
SEATTLE WA     LGT RAIN  51  46  83 SE7       29.89S
$$

*** WEATHER ACROSS MANITOBA...SASKATCHEWAN AND ONTARIO ***
                ***ONTARIO***

CITY           SKY/WX    TMP DP  RH WIND       PRES   REMARKS
GERALDTON      PTSUNNY   28   9  43 SW9       30.19S WCI  20
THUNDER BAY    PTSUNNY   41  16  36 E10G18    30.19F
SIOUX LOOKOUT  PTSUNNY   32   7  34 N5        30.20F
TORONTO        MOSUNNY   68  34  28 SW10G17   30.01F
BIG TROUT LK   FLURRIES  18   3  53 NW15      30.24S WCI   3
PICKLE LAKE    PTSUNNY   25   7  46 W14       30.20S WCI  13
DRYDEN         CLOUDY    32   9  37 E6        30.20F
KENORA         PTSUNNY   34   7  32 NE5       30.20F
$$
                *** MANITOBA***

CITY           SKY/WX    TMP DP  RH WIND       PRES   REMARKS
BRANDON        PTSUNNY   39  14  35 E14       30.14F
DAUPHIN        MOSUNNY   43  18  36 E13       30.16F
ISLAND LAKE    MOSUNNY   23   1  39 NW9       30.27F WCI  13
PILOT MOUND      N/A     37  14  38 E17G23      N/A
THE PAS        MOSUNNY   28   9  43 N10       30.23F WCI  19
THOMPSON       NOT AVBL
WINNIPEG       PTSUNNY   37  14  38 NE7G17    30.21F
LYNN LAKE      SUNNY     19   0  42 NW8       30.25F WCI   9
CHURCHILL      MOSUNNY    1  -6  71 N20       30.37R WCI -20
GILLAM         PTSUNNY   16  -4  41 W10       30.33S WCI   3
$$
                ***SASKATCHEWAN***

CITY           SKY/WX    TMP DP  RH WIND       PRES   REMARKS
ESTEVAN        FLURRIES  32  25  74 SE20G26   30.03F WCI  20
KINDERSLEY     LGT SNOW  32  32 100 E16       29.86F VSB 1   WCI  21
LLOYDMINSTER   LGT SNOW  32  32 100 E17G25    29.93F VSB 1   WCI  21
PRINCE ALBERT  CLOUDY    39  21  48 SE13G22   30.07F
REGINA         CLOUDY    39  14  35 SE21G31   30.00F
YORKTON        SUNNY     41  16  36 SE12G20   30.09F
N. BATTLEFORD  LGT SNOW  34  34 100 E23       29.98F WCI  22
LA RONGE       MOSUNNY   30  10  43 NE13      30.17F WCI  20
SASKATOON      CLOUDY    43  27  52 SE18G25   29.99F
SWIFT CURRENT  MIX PCPN  34  30  86 SE23G29   29.83F WCI  22
$$
NOTE: THESE ARE AUTOMATED STATIONS WITH LIMITED QUALITY CONTROL
      "FAIR" INDICATES FEW OR NO CLOUDS BELOW 12,000 FEET WITH NO
      SIGNIFICANT WEATHER AND/OR OBSTRUCTIONS TO VISIBILITY.
      SKY/WX - SKY CONDITION AND SIGNIFICANT WEATHER.
      TMP - AIR TEMPERATURE.    DP   - DEWPOINT TEMPERATURE.
      RH  - RELATIVE HUMIDITY.  PRES - PRESSURE.
      HX  - HEAT INDEX.         WCI  - WIND CHILL INDEX.
$



USA.gov is the U.S. government's official web portal to all federal, state and local government web resources and services.